SCP
0 0 0 0 0 0 0 0 0 0 0 0 0 0 0 0 0 0 0 0 0 0 0 0 0 0 0 0 0 0 0 0 0 0 0 0 0 0 0 0 0 0 0 0 0 0 0 0 0 0 0 0 0 0
0 0 0 0 0 0 0 0 0 0 0 0 0 0 0 0 0 0 0 0 0 0 0 0 0 0 0 0 0 0 0 0 0 0 0 0 0 0 0 0 0 0 0 0 0 0 0 0 0 0 0 0 0 0
0 0 0 0 0 0 0 0 0 0 0 0 0 0 0 0 0 0 0 0 0 0 0 0 0 0 0 0 0 0 0 0 0 0 0 0 0 0 0 0 0 0 0 0 0 0 0 0 0 0 0 0 0 0
0 0 0 0 0 0 0 0 0 0 0 0 0 0 0 0 0 0 0 0 0 0 0 0 0 0 0 0 0 0 0 0 0 0 0 0 0 0 0 0 0 0 0 0 0 0 0 0 0 0 0 0 0 0
0 0 0 -0 0 0 0 0 0 0 0 0 0 0 0 0 0 0 0 0 0 0 0 0 0 0 0 0 0 0 0 0 0 0 0 0 0 0 0 0 0 0 0 0 0 0 0 0 0 0 0 0 0 0
0 0 0 0 -0 0 0 0 0 0 0 0 0 0 0 0 0 0 0 0 0 0 0 0 0 0 0 0 0 0 0 0 0 0 0 0 0 0 0 0 0 0 0 0 0 0 0 0 0 0 0 0 0 0
-0 0 0 -0 -0 -0 0 0 0 0 0 0 0 0 0 0 0 0 1 0 0 0 0 0 0 0 0 0 0 0 0 0 0 0 0 0 0 0 0 0 0 0 0 0 0 0 0 0 0 0 0 0 0 0
0 0 0 -0 0 -0 0 0 0 0 0 0 0 0 0 0 0 0 0 0 0 0 0 0 0 0 0 0 0 0 0 0 0 0 0 0 0 0 0 0 0 0 0 0 0 0 0 0 0 0 0 0 0 0
0 0 0 0 -0 -0 0 0 0 0 0 0 0 0 0 0 0 0 -0 -0 0 0 0 0 0 0 0 0 0 0 0 0 0 0 0 0 0 0 0 0 0 0 0 0 0 0 0 0 0 0 0 0 0 0
0 0 0 0 0 -0 -0 0 0 0 0 0 0 0 0 0 0 0 0 -0 0 0 0 0 0 0 0 0 0 0 0 0 0 0 0 0 0 0 0 0 0 0 0 0 0 0 0 0 0 0 0 0 0 0
0 0 0 0 0 0 0 0 0 0 0 0 0 0 0 0 0 0 0 0 0 0 0 0 0 0 0 0 0 0 0 0 0 0 0 0 0 0 -0 0 0 0 0 0 0 0 0 0 0 0 0 0 0 0
0 0 -0 -0 -0 -0 -0 0 0 0 0 0 0 0 0 0 0 0 0 0 0 0 0 0 0 0 0 0 0 0 0 0 0 0 0 0 0 0 0 0 0 0 0 0 0 0 0 0 0 0 0 0 0 0
0 -0 -0 -0 -0 -0 -0 0 0 0 0 0 0 0 0 0 0 0 0 0 0 0 0 0 0 0 0 0 0 0 0 0 0 0 0 0 0 0 0 0 0 0 0 0 0 0 0 0 0 0 0 0 0 0
-0 -0 0 0 -0 -0 0 -0 0 0 0 0 0 0 0 0 0 0 0 0 0 0 0 0 0 0 0 0 0 0 0 0 0 0 0 0 0 0 0 0 0 0 0 0 0 0 0 0 0 0 0 0 0 0
0 0 0 0 -0 0 0 0 0 0 0 0 0 0 0 0 0 0 0 0 0 0 0 0 0 0 0 0 0 0 0 0 0 0 0 0 0 0 0 0 0 0 0 0 0 0 0 0 0 0 0 0 0 0
0 0 0 0 0 0 -0 0 0 0 0 0 0 0 0 0 -0 0 0 0 0 0 0 0 0 0 0 0 0 0 0 0 0 0 0 0 0 0 0 0 0 0 0 0 0 0 0 0 0 0 0 0 0 0
0 0 0 0 0 0 0 0 0 0 0 0 0 -0 0 0 0 -0 0 0 0 0 0 0 0 0 0 0 0 0 0 0 0 0 0 0 0 0 0 -0 0 0 0 0 0 0 0 0 0 0 0 0 0 0
0 0 0 0 0 0 0 0 0 0 0 0 0 0 0 0 0 0 0 0 0 0 0 0 0 0 0 0 0 0 0 0 0 0 0 0 0 0 0 0 0 0 0 0 0 0 0 0 0 0 0 0 0 0
0 0 0 -0 0 0 0 0 0 0 0 0 0 0 0 -0 -0 -0 0 0 0 0 0 0 0 0 0 0 0 0 0 0 0 0 0 0 0 0 0 0 0 0 0 0 0 0 0 0 0 0 0 0 0 0
-0 -0 -0 -0 0 0 0 0 0 0 0 0 0 0 0 0 0 -0 0 0 0 0 0 0 0 0 0 0 0 0 0 0 0 0 0 0 0 0 0 0 0 0 0 0 0 0 0 0 0 0 0 0 0 0
-0 -0 -0 0 -0 0 0 0 0 0 0 0 0 0 0 0 0 -0 0 0 0 0 0 0 0 0 0 0 0 0 0 0 0 0 0 0 0 0 0 0 0 0 0 0 0 0 0 0 0 0 0 0 0 0
0 -0 0 0 0 0 0 0 0 0 0 0 0 0 0 0 0 -0 -0 0 0 0 0 0 0 0 0 0 0 0 0 0 0 0 0 0 0 0 0 0 0 0 0 0 0 0 0 0 0 0 0 0 0 0
0 -0 0 -0 0 -0 0 0 0 0 0 0 0 0 0 -0 0 -0 -0 0 0 0 0 0 0 0 0 0 0 0 0 0 0 0 0 0 0 0 0 0 0 0 0 0 0 0 0 0 0 0 0 0 0 0
-0 -0 -0 0 -0 0 0 0 0 0 0 0 0 -0 0 0 -0 0 -0 0 0 0 0 0 0 0 0 0 0 0 0 0 0 0 0 0 0 0 0 0 0 0 0 0 0 0 0 0 0 0 0 0 0 0
-0 -0 0 -0 0 0 0 0 0 0 0 0 0 -0 -0 -0 -0 0 0 0 0 0 0 0 0 0 0 0 0 0 0 0 0 0 0 0 0 0 0 0 0 0 0 0 0 0 0 0 0 0 0 0 0 0
-0 0 0 -0 0 0 0 0 0 0 0 0 0 0 0 -0 -0 0 0 0 0 0 0 0 0 0 0 0 0 0 0 0 0 0 0 0 0 0 0 0 0 0 0 0 0 0 0 0 0 0 0 0 0 0
-0 0 0 0 0 0 0 0 0 0 0 0 0 0 0 0 0 0 0 0 -0 0 0 0 0 0 0 0 0 0 0 0 0 0 0 0 0 0 0 0 0 0 0 0 0 0 0 0 0 0 0 0 0 0
0 0 0 0 0 0 0 0 0 0 0 0 0 -0 0 0 0 0 0 0 0 0 0 0 0 0 0 0 0 0 0 0 0 0 0 0 0 0 0 0 0 0 0 0 0 0 0 0 0 0 0 0 0 0
0 0 0 0 0 0 0 0 0 0 0 0 0 0 0 0 0 0 0 0 0 0 0 0 0 0 0 0 0 0 0 0 0 0 0 0 0 0 0 0 0 0 0 0 0 0 0 0 0 0 0 0 0 0
0 0 0 0 0 0 0 0 0 0 0 0 0 0 0 0 0 0 0 0 0 0 0 0 0 0 0 0 0 0 0 0 0 0 0 0 0 0 0 0 0 0 0 0 0 0 0 0 0 0 0 0 0 0
0 0 0 0 0 0 0 0 0 0 0 0 0 0 0 0 0 0 0 0 0 0 0 0 0 0 0 0 0 0 0 0 0 0 0 0 0 0 0 0 0 0 0 0 0 0 0 0 0 0 0 0 0 0
0 0 0 0 0 0 0 0 0 0 0 0 0 0 0 0 0 0 0 0 0 0 0 0 0 0 0 0 0 0 0 0 0 0 0 0 0 0 0 0 0 0 0 0 0 0 0 0 0 0 0 0 0 0
0 0 0 0 0 0 0 0 0 0 0 0 0 0 0 0 0 0 0 0 0 0 0 0 0 0 0 0 0 0 0 0 0 0 0 0 0 0 0 0 0 0 0 0 0 0 0 0 0 0 0 0 0 0
Wind_Speed_500mb
61 64 63 60 57 58 59 75 73 66 85 99 78 80 136 127 156 165 133 132 129 66 60 76 78 50 42 56 15 36 18 10 5 8 9 8 9 14 3 10 17 19 20 12 9 8 22 31 19 17 12 6 17 22
58 56 60 59 61 56 56 54 63 75 68 74 86 75 53 141 121 164 119 111 126 76 28 76 77 87 76 65 58 63 23 27 35 8 4 7 5 1 6 8 4 7 17 15 27 20 9 58 29 45 13 22 42 51
60 57 55 59 62 64 59 55 56 59 73 66 67 94 80 46 142 147 160 113 104 84 48 47 71 94 88 76 67 40 33 32 28 17 20 6 8 9 10 13 7 10 24 8 4 21 51 73 80 79 70 78 83 68
59 56 57 58 55 58 66 62 57 54 60 60 67 62 70 77 69 154 156 118 121 47 21 33 63 85 77 81 74 76 58 61 33 32 11 7 7 28 8 5 11 15 31 12 16 39 44 86 84 79 67 55 47 41
59 58 60 58 56 57 58 64 65 64 57 56 60 67 61 54 74 83 154 121 141 101 25 15 31 52 75 99 87 78 67 68 64 20 6 6 12 8 2 2 13 29 16 14 22 32 31 44 55 46 35 46 37 39
60 57 50 52 54 54 51 56 58 64 64 58 51 54 62 59 51 57 67 117 131 127 29 8 14 44 72 83 96 84 79 56 43 22 13 16 10 21 6 10 33 67 77 96 73 50 58 76 68 69 58 65 69 59
59 60 61 57 48 49 49 52 53 54 55 61 58 49 60 57 46 38 5 10 107 111 28 9 7 19 72 65 57 63 68 44 31 22 19 15 18 25 3 27 29 48 61 91 106 82 70 96 66 68 58 57 55 58
59 58 54 52 49 49 47 44 50 50 48 55 56 44 57 63 63 58 71 41 76 98 29 11 5 14 58 26 21 41 35 38 28 19 15 11 20 14 13 65 32 64 82 77 76 78 98 93 80 80 75 77 81 81
41 42 45 44 44 48 44 39 41 45 45 40 46 49 49 53 53 71 54 63 87 45 19 14 21 13 42 15 23 19 23 8 17 10 10 24 9 16 55 36 50 50 53 65 70 83 94 100 105 98 90 91 90 81
29 35 40 48 44 39 40 38 37 39 40 35 29 26 18 45 50 48 27 47 49 31 20 7 38 11 43 18 10 17 16 6 8 10 30 9 18 91 108 91 45 42 49 55 73 81 75 79 86 82 84 85 80 73
25 29 28 27 34 31 32 32 28 26 28 26 15 18 26 9 49 37 20 18 15 9 21 17 42 20 33 12 9 11 9 9 9 9 16 9 13 60 138 97 97 90 89 98 112 120 92 99 86 80 85 79 64 57
25 23 25 26 28 28 30 31 26 26 32 24 24 35 28 22 21 17 14 13 12 13 15 21 27 40 23 19 9 14 8 8 11 20 8 8 32 88 55 56 63 82 101 107 108 109 102 98 82 71 70 66 55 44
31 29 25 22 24 30 35 32 30 29 27 28 16 9 17 21 18 18 29 10 11 11 29 30 25 32 18 13 9 8 12 9 34 6 10 14 29 25 33 36 63 74 76 79 77 76 68 62 51 52 50 39 35 32
34 31 31 30 32 37 38 40 36 32 28 18 15 12 11 11 8 6 9 12 17 22 44 72 12 11 16 7 8 13 5 12 11 9 19 18 38 30 34 34 48 62 62 63 54 50 48 42 41 33 27 26 25 20
30 31 37 27 26 25 25 31 35 37 27 17 15 12 11 10 5 7 7 28 28 61 71 38 16 12 6 9 5 11 7 12 18 16 12 34 32 28 36 51 70 61 45 41 37 39 37 34 26 22 24 18 19 22
21 9 14 18 16 20 25 29 35 45 16 18 19 8 9 6 7 6 11 5 42 75 71 17 9 10 8 13 11 16 26 20 13 8 8 20 24 34 34 51 62 51 46 38 36 38 36 33 29 24 18 14 19 20
11 4 9 11 12 15 13 24 20 17 15 8 9 28 30 28 7 10 7 11 43 62 17 8 16 10 11 8 7 10 13 3 8 15 10 12 25 34 43 49 50 42 52 48 47 44 37 34 28 21 15 12 13 15
6 8 9 8 14 13 6 10 7 9 6 4 2 2 8 25 16 21 40 34 25 36 17 5 10 8 9 17 6 3 12 34 24 22 18 29 20 30 30 30 29 51 44 47 49 43 37 32 24 17 12 10 7 6
14 15 14 11 11 6 4 5 0 3 2 7 17 24 9 25 47 52 47 30 20 13 25 12 15 8 6 5 5 19 32 32 33 44 38 22 26 15 18 26 37 47 55 48 44 38 31 27 20 13 9 10 6 5
15 16 21 17 11 3 3 6 11 9 6 16 18 29 16 17 33 39 71 58 33 22 20 13 8 12 15 30 34 37 39 38 42 50 26 4 15 13 7 6 20 36 45 43 40 35 31 27 20 14 12 10 9 13
11 8 10 7 6 16 14 20 12 13 18 13 19 16 14 20 29 42 39 46 30 18 8 18 34 45 36 31 26 31 32 33 36 31 42 40 27 22 9 4 17 28 30 29 28 31 31 27 21 17 16 16 17 25
14 9 13 16 16 12 18 35 15 18 15 12 17 19 15 7 16 28 21 44 15 17 33 42 54 55 42 34 29 25 29 27 16 17 17 24 26 16 6 8 15 17 22 25 29 27 29 26 23 22 22 23 30 35
7 12 18 32 15 33 15 33 15 25 12 14 11 9 7 8 20 14 12 15 14 36 55 55 53 36 31 29 22 22 27 24 19 18 19 11 11 6 2 10 15 15 20 26 30 33 27 25 25 24 25 30 35 34
23 21 24 22 35 13 24 24 20 19 18 11 9 9 8 8 17 10 8 7 31 58 67 68 64 59 39 38 42 41 41 35 30 27 18 16 25 23 21 23 21 24 27 32 36 33 29 27 26 25 23 22 24 23
20 29 21 19 26 20 16 13 15 14 8 10 9 10 9 18 7 9 7 22 50 59 69 68 60 54 53 50 39 35 37 38 37 39 29 23 23 32 37 33 34 35 33 31 33 32 32 32 31 28 25 22 19 17
19 24 15 19 14 10 8 11 13 11 9 12 10 14 16 7 11 9 7 36 43 61 65 58 59 61 52 47 45 40 38 35 36 42 44 37 32 34 37 38 43 40 35 34 34 34 34 33 30 27 25 22 19 16
15 10 19 23 15 14 6 7 10 8 10 13 9 12 11 11 9 9 34 39 55 50 40 37 38 41 46 46 38 34 26 25 30 34 44 44 41 39 40 39 46 42 34 35 32 32 32 31 30 27 24 20 17 12
15 27 11 35 20 27 7 7 10 12 9 20 8 12 7 7 5 22 30 45 37 33 30 28 31 32 34 37 42 38 32 21 18 26 38 45 48 45 40 36 34 37 45 43 39 39 37 34 32 29 25 24 25 22
15 52 22 15 15 14 21 12 13 21 29 13 5 5 7 9 20 30 33 33 34 40 42 42 42 42 43 49 52 51 44 45 47 51 55 60 58 52 49 44 43 43 45 44 45 42 38 36 35 33 34 33 34 30
30 44 22 22 9 11 18 17 18 21 30 28 13 13 7 8 22 59 44 42 49 53 49 48 52 55 56 59 62 65 62 63 64 57 59 61 55 52 52 50 51 50 47 45 46 46 43 40 40 40 38 40 37 35
31 27 12 14 7 19 27 17 14 22 21 18 15 12 8 9 18 48 65 51 48 50 53 58 61 62 64 62 60 61 65 63 65 60 55 56 56 57 59 58 57 53 51 50 50 49 46 47 49 50 50 50 48 46
28 24 16 10 11 26 21 20 12 8 13 14 19 21 12 9 17 32 60 53 49 49 49 52 56 58 57 53 52 54 54 53 55 57 56 56 55 54 53 52 51 49 48 49 51 50 46 48 49 48 48 47 44 41
15 16 12 9 12 19 26 24 19 12 11 13 18 19 16 8 9 34 42 52 49 46 41 36 40 47 49 48 49 46 45 45 45 43 45 46 47 46 46 45 44 42 41 44 46 44 44 42 45 44 41 40 38 37
Wind_Direction_500mb
268 265 264 265 265 263 262 253 249 247 249 249 246 238 235 240 225 214 209 209 208 215 226 216 212 183 169 181 156 160 118 189 119 175 161 204 186 213 141 157 170 166 162 190 153 201 281 166 131 183 214 181 189 240
273 268 271 266 267 264 257 260 252 248 249 250 243 241 239 235 228 217 208 212 215 216 229 228 227 223 224 223 185 172 187 161 175 156 204 111 179 91 163 232 155 223 193 181 191 209 229 191 219 220 239 266 273 285
268 270 270 266 264 266 270 257 251 248 248 252 245 243 247 245 225 221 210 212 204 211 238 233 221 224 223 223 220 176 211 186 189 175 153 156 206 136 173 232 183 247 191 220 109 236 244 251 245 253 262 274 286 284
264 265 268 269 263 263 262 266 267 258 242 242 252 244 244 241 231 223 211 203 203 195 217 247 243 224 220 214 214 214 220 198 196 186 169 160 173 198 204 195 208 196 154 185 265 269 264 268 260 265 272 277 275 269
264 266 262 262 265 264 260 258 260 264 267 253 241 251 249 241 238 222 215 207 211 193 175 211 218 222 220 218 210 211 204 193 184 175 182 211 178 148 206 27 232 185 175 188 244 218 230 264 279 278 243 269 281 272
263 260 268 265 261 264 264 262 260 252 256 262 245 247 243 239 239 253 218 214 212 202 202 167 189 193 205 208 203 200 199 182 183 180 186 223 189 194 199 242 245 226 224 228 243 258 254 267 274 274 265 275 284 280
257 263 268 262 258 260 261 265 265 256 259 247 253 262 241 239 236 232 224 196 209 190 193 133 171 172 196 187 184 185 193 192 191 195 208 171 189 190 220 256 227 226 232 235 243 250 262 259 258 273 274 279 281 281
266 266 268 254 253 257 260 261 265 263 261 247 249 256 250 246 247 255 226 243 200 183 191 154 126 148 175 150 155 187 180 188 203 201 174 159 140 193 251 243 278 239 240 245 243 247 253 262 265 269 272 275 277 282
260 267 267 259 256 254 257 259 264 262 260 262 246 248 261 238 242 239 241 236 193 193 178 154 152 184 165 124 141 150 157 168 195 207 176 156 163 221 234 254 237 228 219 239 252 255 259 259 264 267 271 274 275 278
275 282 270 258 249 252 253 257 263 259 254 253 254 224 238 237 229 218 226 191 187 210 203 162 140 158 163 154 139 128 154 172 188 212 146 210 241 244 249 243 240 239 236 242 251 253 248 252 259 265 272 283 279 280
277 285 287 260 246 252 252 253 257 250 240 240 232 234 228 238 186 201 215 174 188 198 174 166 168 141 172 152 131 162 148 168 190 206 173 207 257 240 245 246 245 248 249 251 254 261 261 266 268 272 276 279 278 278
273 276 277 262 245 249 251 243 241 239 237 235 248 297 252 232 199 184 184 167 186 192 170 169 152 135 139 139 116 165 159 164 193 137 162 242 249 249 249 243 247 247 251 255 253 258 266 268 271 272 273 271 271 277
261 257 265 266 261 255 244 241 238 241 244 253 232 258 236 218 208 203 177 162 159 163 164 159 148 137 131 144 111 141 156 178 125 131 218 233 268 235 224 218 246 245 245 251 255 256 261 261 266 261 259 263 269 270
252 258 255 256 270 271 255 237 235 230 227 221 191 227 253 215 246 177 165 150 162 164 159 159 126 131 126 130 136 140 113 142 175 211 217 247 239 210 219 238 259 257 247 250 248 245 248 254 248 245 251 252 254 266
260 269 260 257 273 276 254 238 228 228 221 227 216 223 234 287 258 299 231 145 147 159 151 145 77 95 116 121 118 120 125 185 212 232 208 244 236 222 229 233 230 239 235 222 225 228 228 222 218 219 228 244 268 276
255 249 253 269 284 278 257 243 231 229 210 208 232 238 306 14 316 6 349 23 152 159 153 138 132 156 165 133 143 197 156 195 235 211 227 200 203 214 235 238 242 243 211 215 216 208 207 210 215 218 231 269 288 290
198 259 287 286 299 302 284 229 221 217 225 227 215 262 255 268 255 265 158 245 178 163 160 149 163 173 112 140 194 185 194 238 341 327 9 270 237 229 238 249 250 231 215 216 207 199 205 217 221 225 246 273 287 304
191 243 270 290 287 310 299 230 247 233 295 265 84 300 321 30 345 30 350 357 206 193 174 95 122 136 152 168 221 1 346 321 320 313 334 344 319 246 249 248 233 206 214 211 199 197 206 216 218 225 244 255 269 306
252 270 269 261 285 297 299 274 268 261 280 17 345 355 43 94 47 33 11 356 41 76 104 42 57 33 34 28 346 323 331 339 315 311 315 8 2 322 269 246 237 218 213 204 199 201 200 201 202 209 218 231 211 155
294 305 284 274 226 223 279 20 356 8 35 349 16 20 54 41 24 25 26 22 39 36 41 41 38 351 326 311 319 316 322 331 327 321 317 349 15 2 339 269 204 189 186 189 196 197 194 194 185 196 206 201 166 144
342 30 112 138 70 51 58 4 20 21 345 40 12 38 61 36 28 19 24 18 53 33 23 6 338 327 330 330 338 335 335 329 312 296 292 302 338 348 339 184 179 174 180 179 188 190 190 181 180 188 186 176 159 143
47 73 85 52 51 50 56 9 343 360 8 12 27 36 30 27 10 24 32 39 54 22 353 329 329 334 341 351 351 354 337 328 323 314 314 321 329 344 294 196 186 193 189 179 174 182 177 171 167 165 161 157 150 145
66 46 51 28 42 30 359 7 36 15 28 357 28 34 19 39 15 15 67 57 28 351 348 347 352 355 350 1 6 12 9 9 17 25 12 22 33 345 170 141 143 158 162 160 160 153 155 149 149 155 157 154 154 153
58 49 31 31 21 6 347 13 13 4 21 24 12 32 23 13 2 68 83 67 356 348 354 358 2 4 17 24 23 20 20 28 38 46 37 79 90 82 102 108 113 120 123 131 138 135 136 138 140 137 133 139 149 153
64 14 23 3 9 10 18 4 353 5 16 351 40 18 350 352 49 48 37 353 349 347 344 353 2 6 353 355 11 24 30 34 39 39 44 75 101 105 101 104 99 98 110 123 133 138 137 133 133 132 130 130 131 132
65 21 35 357 355 36 341 11 360 350 356 4 12 342 352 53 45 39 3 345 345 337 339 346 347 345 357 7 360 15 28 43 52 52 54 64 80 92 90 89 94 90 105 111 118 126 131 129 129 133 140 147 158 162
44 336 344 4 326 331 4 14 10 34 11 11 356 8 25 47 27 340 337 347 336 342 347 353 355 355 355 7 25 28 41 55 56 59 61 61 67 76 81 71 69 73 90 95 105 112 115 117 116 110 108 111 112 117
42 13 344 325 348 12 24 17 29 13 354 347 20 33 70 31 329 328 321 340 347 1 13 20 23 22 25 35 43 46 63 83 74 75 74 72 73 75 78 78 79 82 86 86 87 91 94 96 95 95 95 93 92 90
8 353 359 355 352 42 31 30 14 7 359 12 69 64 97 69 21 359 6 19 28 34 40 49 51 56 57 58 63 64 72 79 76 71 66 64 68 68 73 74 76 76 77 81 83 81 82 82 84 86 88 88 86 86
355 1 3 359 25 41 20 31 19 38 50 53 68 108 118 39 26 23 33 38 42 45 46 48 50 50 49 54 60 63 63 67 63 54 55 56 57 64 70 72 73 74 74 76 76 78 78 81 85 87 88 87 85 84
349 348 1 18 41 18 10 31 39 37 46 49 50 49 34 18 30 19 26 35 41 44 47 49 52 52 50 51 54 60 61 64 67 65 65 70 71 72 74 75 76 78 81 83 85 86 88 88 86 87 86 86 84 81
353 3 1 355 340 360 11 22 21 35 30 37 29 32 29 35 24 14 13 24 37 45 46 47 50 50 52 52 52 55 57 59 63 68 68 68 69 70 72 74 76 78 80 81 81 81 81 81 81 78 75 72 70 68
327 353 2 337 340 358 354 354 10 9 32 30 31 25 27 39 39 11 13 18 24 29 34 41 49 52 53 54 55 56 57 60 63 66 70 70 68 68 68 69 69 70 72 74 75 73 71 69 69 67 66 63 62 59
Wind_Speed_850mb
61 64 63 60 57 58 59 75 73 66 85 99 78 80 136 127 156 165 133 132 129 66 60 76 78 50 42 56 15 36 18 10 5 8 9 8 9 14 3 10 17 19 20 12 9 8 22 31 19 17 12 6 17 22
58 56 60 59 61 56 56 54 63 75 68 74 86 75 53 141 121 164 119 111 126 76 28 76 77 87 76 65 58 63 23 27 35 8 4 7 5 1 6 8 4 7 17 15 27 20 9 58 29 45 13 22 42 51
60 57 55 59 62 64 59 55 56 59 73 66 67 94 80 46 142 147 160 113 104 84 48 47 71 94 88 76 67 40 33 32 28 17 20 6 8 9 10 13 7 10 24 8 4 21 51 73 80 79 70 78 83 68
59 56 57 58 55 58 66 62 57 54 60 60 67 62 70 77 69 154 156 118 121 47 21 33 63 85 77 81 74 76 58 61 33 32 11 7 7 28 8 5 11 15 31 12 16 39 44 86 84 79 67 55 47 41
59 58 60 58 56 57 58 64 65 64 57 56 60 67 61 54 74 83 154 121 141 101 25 15 31 52 75 99 87 78 67 68 64 20 6 6 12 8 2 2 13 29 16 14 22 32 31 44 55 46 35 46 37 39
60 57 50 52 54 54 51 56 58 64 64 58 51 54 62 59 51 57 67 117 131 127 29 8 14 44 72 83 96 84 79 56 43 22 13 16 10 21 6 10 33 67 77 96 73 50 58 76 68 69 58 65 69 59
59 60 61 57 48 49 49 52 53 54 55 61 58 49 60 57 46 38 5 10 107 111 28 9 7 19 72 65 57 63 68 44 31 22 19 15 18 25 3 27 29 48 61 91 106 82 70 96 66 68 58 57 55 58
59 58 54 52 49 49 47 44 50 50 48 55 56 44 57 63 63 58 71 41 76 98 29 11 5 14 58 26 21 41 35 38 28 19 15 11 20 14 13 65 32 64 82 77 76 78 98 93 80 80 75 77 81 81
41 42 45 44 44 48 44 39 41 45 45 40 46 49 49 53 53 71 54 63 87 45 19 14 21 13 42 15 23 19 23 8 17 10 10 24 9 16 55 36 50 50 53 65 70 83 94 100 105 98 90 91 90 81
29 35 40 48 44 39 40 38 37 39 40 35 29 26 18 45 50 48 27 47 49 31 20 7 38 11 43 18 10 17 16 6 8 10 30 9 18 91 108 91 45 42 49 55 73 81 75 79 86 82 84 85 80 73
25 29 28 27 34 31 32 32 28 26 28 26 15 18 26 9 49 37 20 18 15 9 21 17 42 20 33 12 9 11 9 9 9 9 16 9 13 60 138 97 97 90 89 98 112 120 92 99 86 80 85 79 64 57
25 23 25 26 28 28 30 31 26 26 32 24 24 35 28 22 21 17 14 13 12 13 15 21 27 40 23 19 9 14 8 8 11 20 8 8 32 88 55 56 63 82 101 107 108 109 102 98 82 71 70 66 55 44
31 29 25 22 24 30 35 32 30 29 27 28 16 9 17 21 18 18 29 10 11 11 29 30 25 32 18 13 9 8 12 9 34 6 10 14 29 25 33 36 63 74 76 79 77 76 68 62 51 52 50 39 35 32
34 31 31 30 32 37 38 40 36 32 28 18 15 12 11 11 8 6 9 12 17 22 44 72 12 11 16 7 8 13 5 12 11 9 19 18 38 30 34 34 48 62 62 63 54 50 48 42 41 33 27 26 25 20
30 31 37 27 26 25 25 31 35 37 27 17 15 12 11 10 5 7 7 28 28 61 71 38 16 12 6 9 5 11 7 12 18 16 12 34 32 28 36 51 70 61 45 41 37 39 37 34 26 22 24 18 19 22
21 9 14 18 16 20 25 29 35 45 16 18 19 8 9 6 7 6 11 5 42 75 71 17 9 10 8 13 11 16 26 20 13 8 8 20 24 34 34 51 62 51 46 38 36 38 36 33 29 24 18 14 19 20
11 4 9 11 12 15 13 24 20 17 15 8 9 28 30 28 7 10 7 11 43 62 17 8 16 10 11 8 7 10 13 3 8 15 10 12 25 34 43 49 50 42 52 48 47 44 37 34 28 21 15 12 13 15
6 8 9 8 14 13 6 10 7 9 6 4 2 2 8 25 16 21 40 34 25 36 17 5 10 8 9 17 6 3 12 34 24 22 18 29 20 30 30 30 29 51 44 47 49 43 37 32 24 17 12 10 7 6
14 15 14 11 11 6 4 5 0 3 2 7 17 24 9 25 47 52 47 30 20 13 25 12 15 8 6 5 5 19 32 32 33 44 38 22 26 15 18 26 37 47 55 48 44 38 31 27 20 13 9 10 6 5
15 16 21 17 11 3 3 6 11 9 6 16 18 29 16 17 33 39 71 58 33 22 20 13 8 12 15 30 34 37 39 38 42 50 26 4 15 13 7 6 20 36 45 43 40 35 31 27 20 14 12 10 9 13
11 8 10 7 6 16 14 20 12 13 18 13 19 16 14 20 29 42 39 46 30 18 8 18 34 45 36 31 26 31 32 33 36 31 42 40 27 22 9 4 17 28 30 29 28 31 31 27 21 17 16 16 17 25
14 9 13 16 16 12 18 35 15 18 15 12 17 19 15 7 16 28 21 44 15 17 33 42 54 55 42 34 29 25 29 27 16 17 17 24 26 16 6 8 15 17 22 25 29 27 29 26 23 22 22 23 30 35
7 12 18 32 15 33 15 33 15 25 12 14 11 9 7 8 20 14 12 15 14 36 55 55 53 36 31 29 22 22 27 24 19 18 19 11 11 6 2 10 15 15 20 26 30 33 27 25 25 24 25 30 35 34
23 21 24 22 35 13 24 24 20 19 18 11 9 9 8 8 17 10 8 7 31 58 67 68 64 59 39 38 42 41 41 35 30 27 18 16 25 23 21 23 21 24 27 32 36 33 29 27 26 25 23 22 24 23
20 29 21 19 26 20 16 13 15 14 8 10 9 10 9 18 7 9 7 22 50 59 69 68 60 54 53 50 39 35 37 38 37 39 29 23 23 32 37 33 34 35 33 31 33 32 32 32 31 28 25 22 19 17
19 24 15 19 14 10 8 11 13 11 9 12 10 14 16 7 11 9 7 36 43 61 65 58 59 61 52 47 45 40 38 35 36 42 44 37 32 34 37 38 43 40 35 34 34 34 34 33 30 27 25 22 19 16
15 10 19 23 15 14 6 7 10 8 10 13 9 12 11 11 9 9 34 39 55 50 40 37 38 41 46 46 38 34 26 25 30 34 44 44 41 39 40 39 46 42 34 35 32 32 32 31 30 27 24 20 17 12
15 27 11 35 20 27 7 7 10 12 9 20 8 12 7 7 5 22 30 45 37 33 30 28 31 32 34 37 42 38 32 21 18 26 38 45 48 45 40 36 34 37 45 43 39 39 37 34 32 29 25 24 25 22
15 52 22 15 15 14 21 12 13 21 29 13 5 5 7 9 20 30 33 33 34 40 42 42 42 42 43 49 52 51 44 45 47 51 55 60 58 52 49 44 43 43 45 44 45 42 38 36 35 33 34 33 34 30
30 44 22 22 9 11 18 17 18 21 30 28 13 13 7 8 22 59 44 42 49 53 49 48 52 55 56 59 62 65 62 63 64 57 59 61 55 52 52 50 51 50 47 45 46 46 43 40 40 40 38 40 37 35
31 27 12 14 7 19 27 17 14 22 21 18 15 12 8 9 18 48 65 51 48 50 53 58 61 62 64 62 60 61 65 63 65 60 55 56 56 57 59 58 57 53 51 50 50 49 46 47 49 50 50 50 48 46
28 24 16 10 11 26 21 20 12 8 13 14 19 21 12 9 17 32 60 53 49 49 49 52 56 58 57 53 52 54 54 53 55 57 56 56 55 54 53 52 51 49 48 49 51 50 46 48 49 48 48 47 44 41
15 16 12 9 12 19 26 24 19 12 11 13 18 19 16 8 9 34 42 52 49 46 41 36 40 47 49 48 49 46 45 45 45 43 45 46 47 46 46 45 44 42 41 44 46 44 44 42 45 44 41 40 38 37
Wind_Direction_850mb
268 265 264 265 265 263 262 253 249 247 249 249 246 238 235 240 225 214 209 209 208 215 226 216 212 183 169 181 156 160 118 189 119 175 161 204 186 213 141 157 170 166 162 190 153 201 281 166 131 183 214 181 189 240
273 268 271 266 267 264 257 260 252 248 249 250 243 241 239 235 228 217 208 212 215 216 229 228 227 223 224 223 185 172 187 161 175 156 204 111 179 91 163 232 155 223 193 181 191 209 229 191 219 220 239 266 273 285
268 270 270 266 264 266 270 257 251 248 248 252 245 243 247 245 225 221 210 212 204 211 238 233 221 224 223 223 220 176 211 186 189 175 153 156 206 136 173 232 183 247 191 220 109 236 244 251 245 253 262 274 286 284
264 265 268 269 263 263 262 266 267 258 242 242 252 244 244 241 231 223 211 203 203 195 217 247 243 224 220 214 214 214 220 198 196 186 169 160 173 198 204 195 208 196 154 185 265 269 264 268 260 265 272 277 275 269
264 266 262 262 265 264 260 258 260 264 267 253 241 251 249 241 238 222 215 207 211 193 175 211 218 222 220 218 210 211 204 193 184 175 182 211 178 148 206 27 232 185 175 188 244 218 230 264 279 278 243 269 281 272
263 260 268 265 261 264 264 262 260 252 256 262 245 247 243 239 239 253 218 214 212 202 202 167 189 193 205 208 203 200 199 182 183 180 186 223 189 194 199 242 245 226 224 228 243 258 254 267 274 274 265 275 284 280
257 263 268 262 258 260 261 265 265 256 259 247 253 262 241 239 236 232 224 196 209 190 193 133 171 172 196 187 184 185 193 192 191 195 208 171 189 190 220 256 227 226 232 235 243 250 262 259 258 273 274 279 281 281
266 266 268 254 253 257 260 261 265 263 261 247 249 256 250 246 247 255 226 243 200 183 191 154 126 148 175 150 155 187 180 188 203 201 174 159 140 193 251 243 278 239 240 245 243 247 253 262 265 269 272 275 277 282
260 267 267 259 256 254 257 259 264 262 260 262 246 248 261 238 242 239 241 236 193 193 178 154 152 184 165 124 141 150 157 168 195 207 176 156 163 221 234 254 237 228 219 239 252 255 259 259 264 267 271 274 275 278
275 282 270 258 249 252 253 257 263 259 254 253 254 224 238 237 229 218 226 191 187 210 203 162 140 158 163 154 139 128 154 172 188 212 146 210 241 244 249 243 240 239 236 242 251 253 248 252 259 265 272 283 279 280
277 285 287 260 246 252 252 253 257 250 240 240 232 234 228 238 186 201 215 174 188 198 174 166 168 141 172 152 131 162 148 168 190 206 173 207 257 240 245 246 245 248 249 251 254 261 261 266 268 272 276 279 278 278
273 276 277 262 245 249 251 243 241 239 237 235 248 297 252 232 199 184 184 167 186 192 170 169 152 135 139 139 116 165 159 164 193 137 162 242 249 249 249 243 247 247 251 255 253 258 266 268 271 272 273 271 271 277
261 257 265 266 261 255 244 241 238 241 244 253 232 258 236 218 208 203 177 162 159 163 164 159 148 137 131 144 111 141 156 178 125 131 218 233 268 235 224 218 246 245 245 251 255 256 261 261 266 261 259 263 269 270
252 258 255 256 270 271 255 237 235 230 227 221 191 227 253 215 246 177 165 150 162 164 159 159 126 131 126 130 136 140 113 142 175 211 217 247 239 210 219 238 259 257 247 250 248 245 248 254 248 245 251 252 254 266
260 269 260 257 273 276 254 238 228 228 221 227 216 223 234 287 258 299 231 145 147 159 151 145 77 95 116 121 118 120 125 185 212 232 208 244 236 222 229 233 230 239 235 222 225 228 228 222 218 219 228 244 268 276
255 249 253 269 284 278 257 243 231 229 210 208 232 238 306 14 316 6 349 23 152 159 153 138 132 156 165 133 143 197 156 195 235 211 227 200 203 214 235 238 242 243 211 215 216 208 207 210 215 218 231 269 288 290
198 259 287 286 299 302 284 229 221 217 225 227 215 262 255 268 255 265 158 245 178 163 160 149 163 173 112 140 194 185 194 238 341 327 9 270 237 229 238 249 250 231 215 216 207 199 205 217 221 225 246 273 287 304
191 243 270 290 287 310 299 230 247 233 295 265 84 300 321 30 345 30 350 357 206 193 174 95 122 136 152 168 221 1 346 321 320 313 334 344 319 246 249 248 233 206 214 211 199 197 206 216 218 225 244 255 269 306
252 270 269 261 285 297 299 274 268 261 280 17 345 355 43 94 47 33 11 356 41 76 104 42 57 33 34 28 346 323 331 339 315 311 315 8 2 322 269 246 237 218 213 204 199 201 200 201 202 209 218 231 211 155
294 305 284 274 226 223 279 20 356 8 35 349 16 20 54 41 24 25 26 22 39 36 41 41 38 351 326 311 319 316 322 331 327 321 317 349 15 2 339 269 204 189 186 189 196 197 194 194 185 196 206 201 166 144
342 30 112 138 70 51 58 4 20 21 345 40 12 38 61 36 28 19 24 18 53 33 23 6 338 327 330 330 338 335 335 329 312 296 292 302 338 348 339 184 179 174 180 179 188 190 190 181 180 188 186 176 159 143
47 73 85 52 51 50 56 9 343 360 8 12 27 36 30 27 10 24 32 39 54 22 353 329 329 334 341 351 351 354 337 328 323 314 314 321 329 344 294 196 186 193 189 179 174 182 177 171 167 165 161 157 150 145
66 46 51 28 42 30 359 7 36 15 28 357 28 34 19 39 15 15 67 57 28 351 348 347 352 355 350 1 6 12 9 9 17 25 12 22 33 345 170 141 143 158 162 160 160 153 155 149 149 155 157 154 154 153
58 49 31 31 21 6 347 13 13 4 21 24 12 32 23 13 2 68 83 67 356 348 354 358 2 4 17 24 23 20 20 28 38 46 37 79 90 82 102 108 113 120 123 131 138 135 136 138 140 137 133 139 149 153
64 14 23 3 9 10 18 4 353 5 16 351 40 18 350 352 49 48 37 353 349 347 344 353 2 6 353 355 11 24 30 34 39 39 44 75 101 105 101 104 99 98 110 123 133 138 137 133 133 132 130 130 131 132
65 21 35 357 355 36 341 11 360 350 356 4 12 342 352 53 45 39 3 345 345 337 339 346 347 345 357 7 360 15 28 43 52 52 54 64 80 92 90 89 94 90 105 111 118 126 131 129 129 133 140 147 158 162
44 336 344 4 326 331 4 14 10 34 11 11 356 8 25 47 27 340 337 347 336 342 347 353 355 355 355 7 25 28 41 55 56 59 61 61 67 76 81 71 69 73 90 95 105 112 115 117 116 110 108 111 112 117
42 13 344 325 348 12 24 17 29 13 354 347 20 33 70 31 329 328 321 340 347 1 13 20 23 22 25 35 43 46 63 83 74 75 74 72 73 75 78 78 79 82 86 86 87 91 94 96 95 95 95 93 92 90
8 353 359 355 352 42 31 30 14 7 359 12 69 64 97 69 21 359 6 19 28 34 40 49 51 56 57 58 63 64 72 79 76 71 66 64 68 68 73 74 76 76 77 81 83 81 82 82 84 86 88 88 86 86
355 1 3 359 25 41 20 31 19 38 50 53 68 108 118 39 26 23 33 38 42 45 46 48 50 50 49 54 60 63 63 67 63 54 55 56 57 64 70 72 73 74 74 76 76 78 78 81 85 87 88 87 85 84
349 348 1 18 41 18 10 31 39 37 46 49 50 49 34 18 30 19 26 35 41 44 47 49 52 52 50 51 54 60 61 64 67 65 65 70 71 72 74 75 76 78 81 83 85 86 88 88 86 87 86 86 84 81
353 3 1 355 340 360 11 22 21 35 30 37 29 32 29 35 24 14 13 24 37 45 46 47 50 50 52 52 52 55 57 59 63 68 68 68 69 70 72 74 76 78 80 81 81 81 81 81 81 78 75 72 70 68
327 353 2 337 340 358 354 354 10 9 32 30 31 25 27 39 39 11 13 18 24 29 34 41 49 52 53 54 55 56 57 60 63 66 70 70 68 68 68 69 69 70 72 74 75 73 71 69 69 67 66 63 62 59